Virginia Beach Weather Center

Moon Phase Calendar



Online Cameras

 


      

Current Conditions in Virginia Beach
12/1/2020 10:34:08 AM

47°F
Feels Like 33
Clouds
Humidity
45%
Pressure
29.77"
Wind
17.2 mph (W)
Dew Point
27°F
UV Index
2/10 (Low)
Visibility
6 mi

Hourly Forecast

Date & Time Tue, Dec 1
10:00 AM
Tue, Dec 1
11:00 AM
Tue, Dec 1
12:00 PM
Tue, Dec 1
1:00 PM
Tue, Dec 1
2:00 PM
Tue, Dec 1
3:00 PM
Tue, Dec 1
4:00 PM
Tue, Dec 1
5:00 PM
Tue, Dec 1
6:00 PM
Tue, Dec 1
7:00 PM
Tue, Dec 1
8:00 PM
Tue, Dec 1
9:00 PM
Tue, Dec 1
10:00 PM
Tue, Dec 1
11:00 PM
Wed, Dec 2
12:00 AM
Wed, Dec 2
1:00 AM
Wed, Dec 2
2:00 AM
Wed, Dec 2
3:00 AM
Wed, Dec 2
4:00 AM
Wed, Dec 2
5:00 AM
Wed, Dec 2
6:00 AM
Wed, Dec 2
7:00 AM
Wed, Dec 2
8:00 AM
Wed, Dec 2
9:00 AM
Wed, Dec 2
10:00 AM
Wed, Dec 2
11:00 AM
Wed, Dec 2
12:00 PM
Wed, Dec 2
1:00 PM
Wed, Dec 2
2:00 PM
Wed, Dec 2
3:00 PM
Wed, Dec 2
4:00 PM
Wed, Dec 2
5:00 PM
Wed, Dec 2
6:00 PM
Wed, Dec 2
7:00 PM
Wed, Dec 2
8:00 PM
Wed, Dec 2
9:00 PM
Wed, Dec 2
10:00 PM
Wed, Dec 2
11:00 PM
Thu, Dec 3
12:00 AM
Thu, Dec 3
1:00 AM
Thu, Dec 3
2:00 AM
Thu, Dec 3
3:00 AM
Thu, Dec 3
4:00 AM
Thu, Dec 3
5:00 AM
Thu, Dec 3
6:00 AM
Thu, Dec 3
7:00 AM
Thu, Dec 3
8:00 AM
Thu, Dec 3
9:00 AM
Condition
Clouds

Clouds

Clear

Clear

Clear

Clear

Clear

Clear

Clear

Clear

Clear

Clear

Clear

Clear

Clear

Clear

Clear

Clear

Clear

Clear

Clear

Clear

Clear

Clear

Clear

Clear

Clear

Clear

Clear

Clear

Clear

Clear

Clear

Clear

Clear

Clear

Clear

Clear

Clear

Clear

Clear

Clear

Clear

Clear

Clear

Clear

Clear

Clear
Temperature 47°F47°F47°F48°F48°F48°F47°F46°F46°F45°F45°F44°F43°F42°F41°F40°F40°F39°F39°F38°F38°F38°F38°F40°F41°F43°F44°F46°F47°F47°F47°F46°F46°F45°F45°F45°F45°F45°F44°F45°F44°F44°F44°F44°F44°F44°F45°F46°F
Feels Like 31°F32°F32°F32°F33°F33°F32°F32°F32°F31°F30°F29°F28°F27°F27°F26°F26°F25°F25°F25°F25°F25°F25°F27°F30°F32°F34°F35°F36°F36°F37°F36°F36°F36°F36°F36°F36°F36°F36°F36°F37°F36°F37°F37°F38°F39°F40°F42°F
Cloudiness 20%11%5%2%0%0%0%0%0%0%0%0%0%0%0%0%0%0%0%0%0%0%0%0%0%0%0%0%0%0%0%0%0%0%0%0%0%0%0%0%0%0%0%0%0%0%0%0%
Visibility 6 mi6 mi6 mi6 mi6 mi6 mi6 mi6 mi6 mi6 mi6 mi6 mi6 mi6 mi6 mi6 mi6 mi6 mi6 mi6 mi6 mi6 mi6 mi6 mi6 mi6 mi6 mi6 mi6 mi6 mi6 mi6 mi6 mi6 mi6 mi6 mi6 mi6 mi6 mi6 mi6 mi6 mi6 mi6 mi6 mi6 mi6 mi6 mi
Precipitation 0%0%0%0%0%0%0%0%0%0%0%0%0%0%0%0%0%0%0%0%0%0%0%0%0%0%0%0%0%0%0%0%0%0%0%0%0%0%0%0%0%0%0%0%0%0%0%0%
Humidity 45%51%53%53%53%53%55%57%58%58%60%62%64%66%68%70%71%72%74%75%75%75%74%70%66%62%58%56%53%52%53%55%56%57%58%58%58%59%59%60%60%60%61%61%61%61%59%56%
Dew Point 27°F30°F31°F32°F32°F32°F32°F32°F32°F31°F31°F30°F30°F30°F29°F29°F28°F28°F28°F28°F28°F28°F28°F28°F28°F28°F28°F27°F27°F27°F28°F28°F28°F28°F28°F28°F28°F29°F29°F30°F30°F30°F30°F30°F30°F30°F30°F31°F
Pressure 29.77"29.8"29.83"29.83"29.83"29.83"29.85"29.91"29.91"29.94"29.97"30"30"30.03"30.03"30.06"30.06"30.06"30.06"30.09"30.12"30.12"30.15"30.15"30.15"30.18"30.18"30.18"30.18"30.18"30.21"30.21"30.24"30.27"30.27"30.3"30.3"30.3"30.3"30.3"30.33"30.33"30.33"30.33"30.36"30.36"30.39"30.39"
Wind Speed 19.6 mph19.8 mph20.4 mph20.9 mph20.6 mph20.5 mph20 mph18.9 mph18.8 mph18.6 mph19.1 mph20 mph19.7 mph19 mph19 mph18 mph17.5 mph18.1 mph17.5 mph17.2 mph16.8 mph16 mph16.4 mph15.4 mph14 mph13.8 mph12.5 mph12.3 mph12.1 mph12.6 mph11.1 mph11 mph10 mph9.6 mph9.4 mph8.3 mph7.9 mph8.1 mph8.4 mph8.2 mph7.4 mph7.6 mph6.5 mph5.3 mph4.6 mph2.4 mph0.7 mph1.9 mph
Wind
Direction
252°
WSW
253°
WSW
252°
WSW
253°
WSW
255°
WSW
254°
WSW
253°
WSW
255°
WSW
255°
WSW
256°
WSW
259°
W
265°
W
269°
W
268°
W
268°
W
269°
W
269°
W
268°
W
265°
W
268°
W
271°
W
269°
W
272°
W
276°
W
277°
W
278°
W
279°
W
283°
WNW
283°
WNW
281°
W
282°
WNW
279°
W
272°
W
267°
W
268°
W
273°
W
276°
W
287°
WNW
313°
NW
341°
NNW
357°
N

N

N
12°
NNE
24°
NNE
35°
NE
102°
ESE
171°
S

Daily Forecast

Date High Low Precip. Humidity
Today
Dec 1

Rain
55 °F
42 °F
43%
51%
Wednesday
Dec 2

Clear
47 °F
38 °F
0%
62%
Thursday
Dec 3

Clear
53 °F
44 °F
0%
52%
Friday
Dec 4

Clouds
58 °F
46 °F
0%
53%
Saturday
Dec 5

Rain
62 °F
60 °F
100%
85%
Sunday
Dec 6

Rain
52 °F
45 °F
87%
73%
Monday
Dec 7

Clouds
52 °F
47 °F
0%
62%
Tuesday
Dec 8

Clear
47 °F
41 °F
0%
67%
Wednesday
Dec 9

Clear
50 °F
43 °F
0%
63%
Thursday
Dec 10

Clear
50 °F
45 °F
0%
66%
Friday
Dec 11

Clear
56 °F
45 °F
0%
65%
Saturday
Dec 12

Clouds
58 °F
48 °F
0%
71%
Sunday
Dec 13

Rain
54 °F
44 °F
33%
60%
Monday
Dec 14

Rain
59 °F
49 °F
100%
92%
Tuesday
Dec 15

Rain
62 °F
39 °F
100%
59%
Wednesday
Dec 16

Clear
37 °F
30 °F
0%
83%


Temperature 8-14 Day Outlook



Precipitation 8-14 Day Outlook




Quick Links
Virginia Beach News
Virginia Beach Photos
Virginia Beach Videos




About Us
Contact Us
Site Map
Search Site
Advertise With Us
   
VirginiaBeach.USCoast.info
THE VIRGINIA BEACH WEBSITE

Copyright 2020, Coastal Town
Privacy    |    Legal